M I D A S
Marine Information and Data Acquisition System
Tripno 935 of the Zeeleeuw from 2005-07-04 06:34:52 to 2005-07-04 12:00:02
Back to CruiseResearch ActivitiesStationsMapUnderway DataData graphs

EquipmentUnitsComments
TimeDGPSUTC
LatitudeDGPSDM.mWGS84
LongitudeDGPSDM.mWGS84
SpeedMeteo Stationm/sRelative wind speed
DirectionMeteo StationdegRelative wind direction
TemperatureMeteo Stationdeg CelciusAir temperature
PressureMeteo StationPaAtmospheric pressure
HumidityMeteo Station%Relative humidity
Missing or incorrect values are displayed as -999
Metereological data collected by the RV Zeeleeuw from 2005-07-04 06:30:44 to 2005-07-04 12:10:51
Time Latitude Longitude Speed Direction Temperature Pressure Humidity
2005-07-04 06:31 51°13.593 2°56.116 2.7 5 16.6 100390 100
2005-07-04 06:32 51°13.595 2°56.111 1.5 76 16.6 100390 100
2005-07-04 06:33 51°13.595 2°56.109 3 44 16.6 100380 100
2005-07-04 06:34 51°13.581 2°56.124 3.3 24 16.5 100380 100
2005-07-04 06:35 51°13.55 2°56.189 3.2 52 16.6 100380 100
2005-07-04 06:36 51°13.552 2°56.192 1.9 110 16.5 100380 100
2005-07-04 06:37 51°13.551 2°56.183 1.6 134 16.5 100370 100
2005-07-04 06:38 51°13.552 2°56.177 1.5 251 16.6 100360 100
2005-07-04 06:39 51°13.55 2°56.167 0.7 203 16.6 100360 100
2005-07-04 06:40 51°13.572 2°56.098 2.1 226 16.6 100360 100
2005-07-04 06:41 51°13.62 2°55.967 1.5 340 16.6 100360 100
2005-07-04 06:42 51°13.686 2°55.82 4 333 16.6 100360 100
2005-07-04 06:43 51°13.772 2°55.684 1.8 321 16.6 100360 100
2005-07-04 06:44 51°13.887 2°55.587 2.3 8 16.6 100370 100
2005-07-04 06:45 51°14.01 2°55.502 3 337 16.6 100360 100
2005-07-04 06:46 51°14.136 2°55.415 2.9 352 16.6 100350 100
2005-07-04 06:47 51°14.265 2°55.246 5.3 354 16.6 100350 100
2005-07-04 06:48 51°14.381 2°55.022 7.8 340 16.6 100340 100
2005-07-04 06:49 51°14.528 2°54.786 6.5 335 16.6 100340 100
2005-07-04 06:50 51°14.708 2°54.594 6.1 331 16.6 100340 100
2005-07-04 06:51 51°14.894 2°54.39 6.2 328 16.6 100340 100
2005-07-04 06:52 51°15.078 2°54.215 6.4 -999 16.6 100350 100
2005-07-04 06:53 51°15.268 2°54.012 6.7 -999 16.6 100340 100
2005-07-04 06:54 51°15.46 2°53.817 6.8 -999 16.6 100350 100
2005-07-04 06:55 51°15.659 2°53.646 6.9 316 16.6 100350 100
2005-07-04 06:56 51°15.856 2°53.481 6.5 -999 16.7 100350 100
2005-07-04 06:57 51°16.056 2°53.312 6.4 306 16.8 100350 100
2005-07-04 06:58 51°16.252 2°53.156 7.3 316 16.7 100350 100
2005-07-04 06:59 51°16.453 2°53.01 7.1 309 16.8 100350 100
2005-07-04 07:00 51°16.659 2°52.867 9 290 16.8 100360 100
2005-07-04 07:01 51°16.856 2°52.73 13.2 322 16.7 100350 100
2005-07-04 07:02 51°17.052 2°52.588 12.1 323 16.5 100340 100
2005-07-04 07:03 51°17.247 2°52.449 12.9 322 16.4 100350 100
2005-07-04 07:04 51°17.449 2°52.33 14.1 321 16.3 100350 100
2005-07-04 07:05 51°17.655 2°52.255 13.2 40 16.1 100340 100
2005-07-04 07:06 51°17.86 2°52.224 13.9 228 16.1 100350 100
2005-07-04 07:07 51°18.07 2°52.193 12.4 40 15.9 100340 100
2005-07-04 07:08 51°18.287 2°52.158 13.1 314 15.9 100350 100
2005-07-04 07:09 51°18.496 2°52.124 14.6 42 15.9 100340 100
2005-07-04 07:10 51°18.71 2°52.089 13.7 317 15.9 100340 100
2005-07-04 07:11 51°18.927 2°52.052 15.1 318 15.8 100340 100
2005-07-04 07:12 51°19.143 2°52.011 14.2 318 15.8 100330 100
2005-07-04 07:13 51°19.354 2°51.973 14.7 321 15.8 100340 100
2005-07-04 07:14 51°19.573 2°51.932 13.9 323 15.8 100340 100
2005-07-04 07:15 51°19.787 2°51.891 14.7 323 15.7 100330 100
2005-07-04 07:16 51°20.005 2°51.849 14.2 328 15.7 100320 100
2005-07-04 07:17 51°20.221 2°51.807 13.1 329 15.7 100320 100
2005-07-04 07:18 51°20.436 2°51.767 13.4 335 15.7 100320 100
2005-07-04 07:19 51°20.652 2°51.725 14 332 15.7 100310 100
2005-07-04 07:20 51°20.87 2°51.683 13.2 332 15.8 100310 100
2005-07-04 07:21 51°21.088 2°51.635 13.4 336 15.8 100310 100
2005-07-04 07:22 51°21.309 2°51.588 14.2 338 15.8 100300 100
2005-07-04 07:23 51°21.527 2°51.54 13.6 339 15.8 100290 100
2005-07-04 07:24 51°21.744 2°51.491 14.2 337 15.9 100290 100
2005-07-04 07:25 51°21.964 2°51.47 12.3 331 15.9 100290 100
2005-07-04 07:26 51°22.187 2°51.452 13 340 15.9 100290 100
2005-07-04 07:27 51°22.408 2°51.439 13.5 336 15.9 100300 100
2005-07-04 07:28 51°22.627 2°51.441 12.2 339 15.9 100300 100
2005-07-04 07:29 51°22.846 2°51.444 13.6 338 15.9 100300 100
2005-07-04 07:30 51°23.059 2°51.452 12.6 337 15.8 100310 100
2005-07-04 07:31 51°23.264 2°51.474 12 340 15.9 100300 100
2005-07-04 07:32 51°23.472 2°51.497 11.7 336 15.9 100310 100
2005-07-04 07:33 51°23.683 2°51.52 11.8 336 15.8 100310 100
2005-07-04 07:34 51°23.892 2°51.539 12.8 342 15.8 100310 100
2005-07-04 07:35 51°24.103 2°51.558 13 341 15.7 100300 100
2005-07-04 07:36 51°24.314 2°51.564 13.1 338 15.7 100300 100
2005-07-04 07:37 51°24.524 2°51.57 12.9 343 15.7 100300 100
2005-07-04 07:38 51°24.74 2°51.577 13.2 343 15.7 100300 100
2005-07-04 07:39 51°24.952 2°51.58 12.6 339 15.7 100290 100
2005-07-04 07:40 51°25.165 2°51.583 13.5 342 15.6 100300 100
2005-07-04 07:41 51°25.379 2°51.588 13.9 339 15.6 100290 100
2005-07-04 07:42 51°25.589 2°51.594 13.1 340 15.6 100290 100
2005-07-04 07:43 51°25.799 2°51.603 13.7 338 15.7 100290 100
2005-07-04 07:44 51°26.012 2°51.633 14.7 331 15.5 100270 100
2005-07-04 07:45 51°26.223 2°51.705 15 333 15.5 100280 100
2005-07-04 07:46 51°26.423 2°51.806 12.9 325 15.5 100270 100
2005-07-04 07:47 51°26.595 2°51.911 11.7 309 15.5 100280 100
2005-07-04 07:48 51°26.676 2°51.996 10 309 15.6 100310 100
2005-07-04 07:49 51°26.751 2°52.037 10.6 292 15.5 100290 100
2005-07-04 07:50 51°26.753 2°52.031 6 263 15.5 100320 100
2005-07-04 07:51 51°26.745 2°52.027 8 256 15.5 100340 100
2005-07-04 07:52 51°26.737 2°52.024 7.1 257 15.5 100330 100
2005-07-04 07:53 51°26.73 2°52.02 9.9 269 15.5 100330 100
2005-07-04 07:54 51°26.722 2°52.015 12.1 291 15.5 100300 100
2005-07-04 07:55 51°26.723 2°52.025 11.5 293 15.3 100310 100
2005-07-04 07:56 51°26.817 2°52.138 13.4 291 15.3 100280 100
2005-07-04 07:57 51°26.906 2°52.362 12.5 299 15.3 100290 100
2005-07-04 07:58 51°26.983 2°52.611 11.8 283 15.3 100310 100
2005-07-04 07:59 51°27.028 2°52.795 10.6 290 15.3 100320 100
2005-07-04 08:00 51°27.053 2°52.845 6.5 258 15.3 100300 100
2005-07-04 08:01 51°27.047 2°52.849 11.4 266 15.3 100320 100
2005-07-04 08:02 51°27.039 2°52.85 12.9 277 15.2 100320 100
2005-07-04 08:03 51°27.054 2°52.879 13.8 302 15.2 100320 100
2005-07-04 08:04 51°27.119 2°53.05 12.9 298 15.2 100300 100
2005-07-04 08:05 51°27.191 2°53.26 14.1 295 15.2 100300 100
2005-07-04 08:06 51°27.247 2°53.474 12.9 286 15.2 100280 100
2005-07-04 08:07 51°27.282 2°53.586 12.8 287 15.2 100300 100
2005-07-04 08:08 51°27.288 2°53.616 11.5 269 15.2 100330 100
2005-07-04 08:09 51°27.284 2°53.63 11.4 273 15.2 100330 100
2005-07-04 08:10 51°27.278 2°53.634 11 287 15.2 100310 100
2005-07-04 08:11 51°27.309 2°53.721 10.8 291 15.1 100300 100
2005-07-04 08:12 51°27.382 2°53.941 13.8 299 15.2 100280 100
2005-07-04 08:13 51°27.459 2°54.168 14.2 300 15.2 100300 100
2005-07-04 08:14 51°27.529 2°54.336 12.8 291 15.2 100290 100
2005-07-04 08:15 51°27.527 2°54.36 10.3 246 15.2 100330 100
2005-07-04 08:16 51°27.51 2°54.364 7.3 249 15.2 100300 100
2005-07-04 08:17 51°27.498 2°54.365 11 259 15.3 100300 100
2005-07-04 08:18 51°27.528 2°54.433 13.2 309 15.2 100280 100
2005-07-04 08:19 51°27.64 2°54.411 15.9 14 15.2 100270 100
2005-07-04 08:20 51°27.683 2°54.189 15.6 20 15 100280 100
2005-07-04 08:21 51°27.74 2°53.942 15.4 33 15.1 100290 100
2005-07-04 08:22 51°27.8 2°53.747 14.7 5 14.8 100280 100
2005-07-04 08:23 51°27.815 2°53.7 11.6 335 14.7 100280 100
2005-07-04 08:24 51°27.798 2°53.686 11.5 306 14.8 100280 100
2005-07-04 08:25 51°27.777 2°53.673 12.2 280 14.8 100280 100
2005-07-04 08:26 51°27.755 2°53.659 11.3 261 14.7 100290 100
2005-07-04 08:27 51°27.737 2°53.655 13.3 286 14.7 100310 100
2005-07-04 08:28 51°27.784 2°53.656 14.6 15 14.7 100260 100
2005-07-04 08:29 51°27.765 2°53.499 12.7 82 14.8 100260 100
2005-07-04 08:30 51°27.702 2°53.277 11.8 81 14.6 100250 100
2005-07-04 08:31 51°27.637 2°53.046 11 79 14.7 100250 100
2005-07-04 08:32 51°27.594 2°52.914 11.1 81 14.5 100250 100
2005-07-04 08:33 51°27.571 2°52.92 12.1 112 14.5 100250 100
2005-07-04 08:34 51°27.55 2°52.92 10.1 121 14.5 100260 100
2005-07-04 08:35 51°27.505 2°52.842 11 71 14.5 100260 100
2005-07-04 08:36 51°27.453 2°52.638 11.3 85 14.4 100230 100
2005-07-04 08:37 51°27.416 2°52.401 14.6 67 14.5 100230 100
2005-07-04 08:38 51°27.385 2°52.218 12.8 64 14.4 100230 100
2005-07-04 08:39 51°27.364 2°52.19 11.8 82 14.4 100250 100
2005-07-04 08:40 51°27.341 2°52.183 11.5 107 14.4 100250 100
2005-07-04 08:41 51°27.31 2°52.164 11.1 90 14.3 100240 100
2005-07-04 08:42 51°27.261 2°51.988 12.5 74 14.2 100230 100
2005-07-04 08:43 51°27.206 2°51.743 11.1 80 14.2 100230 100
2005-07-04 08:44 51°27.156 2°51.523 12.6 71 14.3 100240 100
2005-07-04 08:45 51°27.127 2°51.418 9.6 73 14.2 100250 100
2005-07-04 08:46 51°27.105 2°51.419 9.5 95 14.2 100270 100
2005-07-04 08:47 51°27.084 2°51.42 11.4 102 14.3 100300 100
2005-07-04 08:48 51°27.048 2°51.356 12.2 61 14.3 100300 100
2005-07-04 08:49 51°27.092 2°51.183 16.2 359 14.3 100310 100
2005-07-04 08:50 51°27.192 2°51.012 16.1 9 14 100310 100
2005-07-04 08:51 51°27.304 2°50.838 15.4 3 13.9 100310 100
2005-07-04 08:52 51°27.397 2°50.733 10.9 332 14 100300 100
2005-07-04 08:53 51°27.428 2°50.748 11.8 271 14.1 100310 100
2005-07-04 08:54 51°27.424 2°50.77 11.3 279 14.2 100320 100
2005-07-04 08:55 51°27.418 2°50.787 9.6 283 14.1 100310 100
2005-07-04 08:56 51°27.467 2°50.868 11.3 308 14.1 100280 100
2005-07-04 08:57 51°27.55 2°51.088 12.1 301 14.2 100280 100
2005-07-04 08:58 51°27.633 2°51.333 11.1 296 14.1 100280 100
2005-07-04 08:59 51°27.671 2°51.521 11.7 280 14.2 100300 100
2005-07-04 09:00 51°27.669 2°51.557 11.8 262 14.2 100310 100
2005-07-04 09:01 51°27.657 2°51.576 10.6 276 14.1 100300 100
2005-07-04 09:02 51°27.643 2°51.59 10.8 284 14.1 100280 100
2005-07-04 09:03 51°27.668 2°51.669 10.3 309 14 100260 100
2005-07-04 09:04 51°27.726 2°51.85 9.9 299 14.1 100250 100
2005-07-04 09:05 51°27.795 2°52.047 11.4 302 14.2 100240 100
2005-07-04 09:06 51°27.851 2°52.217 10.3 295 14.2 100240 100
2005-07-04 09:07 51°27.871 2°52.276 10.5 289 14.3 100240 100
2005-07-04 09:08 51°27.863 2°52.295 9.3 278 14.3 100250 100
2005-07-04 09:09 51°27.852 2°52.314 11.4 296 14.3 100230 100
2005-07-04 09:10 51°27.897 2°52.407 12 306 14.3 100220 100
2005-07-04 09:11 51°27.968 2°52.585 13.1 309 14.4 100210 100
2005-07-04 09:12 51°28.04 2°52.78 10.8 296 14.4 100210 100
2005-07-04 09:13 51°28.094 2°52.959 10.2 299 14.4 100230 100
2005-07-04 09:14 51°28.095 2°53 7.6 243 14.4 100260 100
2005-07-04 09:15 51°28.079 2°53.017 8.6 242 14.4 100270 100
2005-07-04 09:16 51°28.063 2°53.04 6 256 14.4 100280 100
2005-07-04 09:17 51°28.069 2°53.13 8.6 273 14.4 100270 100
2005-07-04 09:18 51°28.115 2°53.264 9.8 290 14.5 100250 100
2005-07-04 09:19 51°28.155 2°53.38 10 285 14.6 100280 100
2005-07-04 09:20 51°28.141 2°53.483 5.5 207 14.6 100290 100
2005-07-04 09:21 51°28.083 2°53.511 8.7 131 14.5 100280 100
2005-07-04 09:22 51°28.036 2°53.483 9.7 90 14.6 100280 100
2005-07-04 09:23 51°28.008 2°53.433 9.2 82 14.5 100270 100
2005-07-04 09:24 51°27.983 2°53.385 8.4 66 14.5 100270 100
2005-07-04 09:25 51°27.961 2°53.332 8.8 66 14.4 100260 100
2005-07-04 09:26 51°27.939 2°53.268 9.5 63 14.6 100260 100
2005-07-04 09:27 51°27.918 2°53.202 10.3 57 14.6 100270 100
2005-07-04 09:28 51°27.899 2°53.145 8.9 -999 14.5 100270 100
2005-07-04 09:29 51°27.881 2°53.092 8.7 65 14.5 100270 100
2005-07-04 09:30 51°27.859 2°53.036 9.9 62 14.7 100280 100
2005-07-04 09:31 51°27.842 2°52.983 8.7 73 14.5 100270 100
2005-07-04 09:32 51°27.822 2°52.927 7.7 67 14.5 100260 100
2005-07-04 09:33 51°27.804 2°52.874 10.3 69 14.5 100260 100
2005-07-04 09:34 51°27.783 2°52.821 8.8 73 14.4 100260 100
2005-07-04 09:35 51°27.768 2°52.766 8.8 52 14.4 100270 100
2005-07-04 09:36 51°27.753 2°52.712 9.3 50 14.5 100270 100
2005-07-04 09:37 51°27.737 2°52.66 10.1 56 14.4 100260 100
2005-07-04 09:38 51°27.723 2°52.608 9.1 64 14.4 100260 100
2005-07-04 09:39 51°27.71 2°52.555 9.1 48 14.4 100260 100
2005-07-04 09:40 51°27.7 2°52.502 8.6 51 14.3 100260 100
2005-07-04 09:41 51°27.69 2°52.448 10.1 45 14.4 100260 100
2005-07-04 09:42 51°27.678 2°52.397 9.6 51 14.3 100260 100
2005-07-04 09:43 51°27.668 2°52.348 9 60 14.3 100270 100
2005-07-04 09:44 51°27.653 2°52.294 9.3 48 14.3 100270 100
2005-07-04 09:45 51°27.641 2°52.229 8.1 56 14.3 100260 100
2005-07-04 09:46 51°27.634 2°52.158 8.6 -999 14.4 100260 100
2005-07-04 09:47 51°27.627 2°52.084 8.6 62 14.3 100260 100
2005-07-04 09:48 51°27.627 2°52.005 7.9 51 14.3 100270 100
2005-07-04 09:49 51°27.629 2°51.925 8 40 14.3 100270 100
2005-07-04 09:50 51°27.635 2°51.868 8.3 42 14.4 100260 100
2005-07-04 09:51 51°27.637 2°51.838 7.6 57 14.3 100260 100
2005-07-04 09:52 51°27.633 2°51.798 8.1 82 14.3 100260 100
2005-07-04 09:53 51°27.581 2°51.758 5.7 129 14.4 100260 100
2005-07-04 09:54 51°27.482 2°51.767 3.3 135 14.4 100270 100
2005-07-04 09:55 51°27.349 2°51.798 3.3 125 14.4 100270 100
2005-07-04 09:56 51°27.208 2°51.84 4.1 130 14.4 100270 100
2005-07-04 09:57 51°27.064 2°51.875 3.7 114 14.4 100260 100
2005-07-04 09:58 51°26.943 2°51.93 3.2 174 14.5 100260 100
2005-07-04 09:59 51°26.867 2°52.036 4.9 218 14.5 100270 100
2005-07-04 10:00 51°26.852 2°52.173 6.6 272 14.3 100270 100
2005-07-04 10:01 51°26.891 2°52.297 8.3 297 14.5 100260 100
2005-07-04 10:02 51°26.945 2°52.402 8.6 301 14.5 100250 100
2005-07-04 10:03 51°26.989 2°52.491 8 294 14.5 100260 100
2005-07-04 10:04 51°27.023 2°52.572 8.7 281 14.5 100270 100
2005-07-04 10:05 51°27.053 2°52.645 7.6 279 14.5 100270 100
2005-07-04 10:06 51°27.078 2°52.714 8.1 277 14.5 100260 100
2005-07-04 10:07 51°27.1 2°52.781 8.7 276 14.5 100280 100
2005-07-04 10:08 51°27.12 2°52.842 7.3 269 14.5 100280 100
2005-07-04 10:09 51°27.136 2°52.895 8.5 273 14.5 100280 100
2005-07-04 10:10 51°27.151 2°52.953 6.7 285 14.5 100280 100
2005-07-04 10:11 51°27.162 2°53.009 8.6 267 14.6 100280 100
2005-07-04 10:12 51°27.17 2°53.069 4.9 255 14.5 100280 100
2005-07-04 10:13 51°27.178 2°53.131 4.8 258 14.4 100290 100
2005-07-04 10:14 51°27.185 2°53.192 4.6 258 14.4 100290 100
2005-07-04 10:15 51°27.197 2°53.252 7.8 281 14.5 100280 100
2005-07-04 10:16 51°27.211 2°53.31 8.3 272 14.5 100280 100
2005-07-04 10:17 51°27.227 2°53.368 8.7 271 14.5 100290 100
2005-07-04 10:18 51°27.242 2°53.427 9.3 272 14.4 100280 100
2005-07-04 10:19 51°27.258 2°53.484 7 276 14.4 100280 100
2005-07-04 10:20 51°27.273 2°53.541 8.8 273 14.3 100280 100
2005-07-04 10:21 51°27.288 2°53.601 8.3 266 14.3 100270 100
2005-07-04 10:22 51°27.302 2°53.662 10 270 14.3 100270 100
2005-07-04 10:23 51°27.318 2°53.731 8.4 267 14.3 100280 100
2005-07-04 10:24 51°27.339 2°53.81 9.3 272 14.5 100280 100
2005-07-04 10:25 51°27.362 2°53.896 9.9 268 14.4 100280 100
2005-07-04 10:26 51°27.382 2°53.988 6.5 259 14.3 100290 100
2005-07-04 10:27 51°27.401 2°54.081 6.9 261 14.3 100290 100
2005-07-04 10:28 51°27.42 2°54.18 5.8 258 14.2 100300 100
2005-07-04 10:29 51°27.44 2°54.277 6.3 260 14.2 100280 100
2005-07-04 10:30 51°27.455 2°54.363 6.5 255 14.1 100310 100
2005-07-04 10:31 51°27.468 2°54.428 6.5 260 14.1 100290 100
2005-07-04 10:32 51°27.48 2°54.483 5.5 257 14.1 100290 100
2005-07-04 10:33 51°27.499 2°54.547 7.9 267 14.1 100300 100
2005-07-04 10:34 51°27.51 2°54.704 3.8 230 14.1 100300 100
2005-07-04 10:35 51°27.374 2°54.801 7.4 84 14 100300 100
2005-07-04 10:36 51°27.16 2°54.774 6.9 79 14.1 100260 100
2005-07-04 10:37 51°26.943 2°54.726 7.1 70 14.1 100270 100
2005-07-04 10:38 51°26.727 2°54.648 7.2 72 14.1 100270 100
2005-07-04 10:39 51°26.517 2°54.583 7.4 68 14 100300 100
2005-07-04 10:40 51°26.302 2°54.52 7.8 65 14.1 100290 100
2005-07-04 10:41 51°26.093 2°54.453 6.9 60 14.1 100300 100
2005-07-04 10:42 51°25.887 2°54.405 8.3 60 14.2 100290 100
2005-07-04 10:43 51°25.68 2°54.349 9.4 55 14.4 100290 100
2005-07-04 10:44 51°25.472 2°54.318 10.3 56 14.5 100290 100
2005-07-04 10:45 51°25.262 2°54.278 9.3 59 14.4 100290 100
2005-07-04 10:46 51°25.055 2°54.24 8.3 62 14.4 100290 100
2005-07-04 10:47 51°24.842 2°54.203 8.4 60 14.5 100290 100
2005-07-04 10:48 51°24.636 2°54.161 9 59 14.5 100280 100
2005-07-04 10:49 51°24.424 2°54.127 8.2 59 14.5 100290 100
2005-07-04 10:50 51°24.218 2°54.087 8.8 58 14.5 100290 100
2005-07-04 10:51 51°24.007 2°54.048 9.7 56 14.5 100290 100
2005-07-04 10:52 51°23.801 2°54.02 10.7 54 14.5 100290 100
2005-07-04 10:53 51°23.591 2°53.998 9.1 57 14.5 100300 100
2005-07-04 10:54 51°23.383 2°53.967 9.3 54 14.5 100290 100
2005-07-04 10:55 51°23.178 2°53.941 8.4 59 14.5 100300 100
2005-07-04 10:56 51°22.97 2°53.921 9.3 43 14.4 100300 100
2005-07-04 10:57 51°22.764 2°53.878 9 51 14.5 100290 100
2005-07-04 10:58 51°22.56 2°53.815 9.6 49 14.4 100300 100
2005-07-04 10:59 51°22.353 2°53.753 9.7 44 14.5 100300 100
2005-07-04 11:00 51°22.149 2°53.695 10.2 44 14.5 100300 100
2005-07-04 11:01 51°21.945 2°53.643 9.4 50 14.6 100300 100
2005-07-04 11:02 51°21.739 2°53.571 10.7 46 14.5 100300 100
2005-07-04 11:03 51°21.536 2°53.503 12.3 41 14.6 100300 100
2005-07-04 11:04 51°21.332 2°53.439 12.2 42 14.7 100300 100
2005-07-04 11:05 51°21.13 2°53.372 12.9 35 14.7 100310 100
2005-07-04 11:06 51°20.925 2°53.309 12.3 39 14.7 100310 100
2005-07-04 11:07 51°20.72 2°53.244 12.7 34 14.6 100310 100
2005-07-04 11:08 51°20.513 2°53.172 11.7 40 14.6 100310 100
2005-07-04 11:09 51°20.309 2°53.11 11.8 47 14.6 100320 100
2005-07-04 11:10 51°20.101 2°53.092 10 57 14.5 100310 100
2005-07-04 11:11 51°19.893 2°53.188 10 49 14.4 100320 100
2005-07-04 11:12 51°19.68 2°53.197 9.9 50 14.4 100320 100
2005-07-04 11:13 51°19.476 2°53.121 11.4 45 14.3 100310 100
2005-07-04 11:14 51°19.283 2°53.031 10.8 49 14.3 100310 100
2005-07-04 11:15 51°19.086 2°52.934 11.2 44 14.2 100310 99
2005-07-04 11:16 51°18.891 2°52.843 11 48 14.3 100290 99
2005-07-04 11:17 51°18.692 2°52.748 10.4 47 14.3 100290 99
2005-07-04 11:18 51°18.495 2°52.65 10.5 45 14.3 100290 99
2005-07-04 11:19 51°18.291 2°52.551 10.9 43 14.3 100300 99
2005-07-04 11:20 51°18.098 2°52.462 11 42 14.3 100300 99
2005-07-04 11:21 51°17.899 2°52.377 11.8 46 14.3 100300 99
2005-07-04 11:22 51°17.701 2°52.288 11.4 41 14.2 100300 99
2005-07-04 11:23 51°17.504 2°52.196 11.3 47 14.3 100300 99
2005-07-04 11:24 51°17.308 2°52.117 10.4 41 14.3 100300 99
2005-07-04 11:25 51°17.113 2°52.01 14.1 32 14.4 100300 99
2005-07-04 11:26 51°16.933 2°51.861 12.4 33 14.4 100300 100
2005-07-04 11:27 51°16.75 2°51.711 13 38 14.4 100300 99
2005-07-04 11:28 51°16.571 2°51.547 13 33 14.5 100300 99
2005-07-04 11:29 51°16.399 2°51.372 12.9 26 14.6 100300 99
2005-07-04 11:30 51°16.231 2°51.188 13.5 26 14.7 100320 100
2005-07-04 11:31 51°16.067 2°51.009 13.4 38 14.8 100300 100
2005-07-04 11:32 51°15.899 2°50.833 13.7 32 14.8 100300 99
2005-07-04 11:33 51°15.735 2°50.662 14.5 31 14.7 100300 99
2005-07-04 11:34 51°15.57 2°50.483 15.7 24 14.8 100300 100
2005-07-04 11:35 51°15.404 2°50.297 14.9 24 14.8 100300 100
2005-07-04 11:36 51°15.237 2°50.12 18.1 40 14.8 100290 100
2005-07-04 11:37 51°15.071 2°49.941 17.3 31 15 100280 100
2005-07-04 11:38 51°14.907 2°49.761 19.9 29 15.1 100270 100
2005-07-04 11:39 51°14.744 2°49.582 19.5 25 15 100260 100
2005-07-04 11:40 51°14.582 2°49.399 18.3 29 15.1 100260 100
2005-07-04 11:41 51°14.404 2°49.27 18.4 48 15.1 100310 100
2005-07-04 11:42 51°14.222 2°49.415 11.5 113 15.1 100250 100
2005-07-04 11:43 51°14.184 2°49.778 8.2 164 15.1 100310 100
2005-07-04 11:44 51°14.241 2°50.157 5.9 171 15 100320 100
2005-07-04 11:45 51°14.317 2°50.536 4.2 180 15.2 100330 100
2005-07-04 11:46 51°14.39 2°50.917 7.3 170 15.5 100330 100
2005-07-04 11:47 51°14.463 2°51.298 4.9 179 15.3 100320 100
2005-07-04 11:48 51°14.521 2°51.677 6.5 162 15.3 100320 100
2005-07-04 11:49 51°14.57 2°52.065 5.6 169 15.2 100330 100
2005-07-04 11:50 51°14.617 2°52.448 4.2 170 15.3 100330 100
2005-07-04 11:51 51°14.635 2°52.833 5.8 160 15.5 100330 100
2005-07-04 11:52 51°14.653 2°53.22 3.6 134 15.4 100330 100
2005-07-04 11:53 51°14.631 2°53.603 5.5 145 15.4 100320 100
2005-07-04 11:54 51°14.597 2°53.988 6.7 130 15.4 100320 100
2005-07-04 11:55 51°14.531 2°54.357 7.4 116 15.3 100310 100
2005-07-04 11:56 51°14.444 2°54.708 9.4 120 15.3 100320 100
2005-07-04 11:57 51°14.357 2°55.049 11.2 123 15.2 100320 100
2005-07-04 11:58 51°14.263 2°55.258 14 119 15.3 100340 100
2005-07-04 11:59 51°14.165 2°55.374 11.6 104 15.4 100330 100
2005-07-04 12:00 51°14.038 2°55.474 8.8 109 15.3 100350 100
2005-07-04 12:01 51°13.94 2°55.553 10.1 88 15.2 100360 99
2005-07-04 12:02 51°13.844 2°55.625 3.1 48 15.2 100370 99
2005-07-04 12:03 51°13.755 2°55.715 4.8 41 15.2 100370 99
2005-07-04 12:04 51°13.699 2°55.818 8.6 89 15.2 100360 99
2005-07-04 12:05 51°13.644 2°55.917 2.8 85 15.1 100370 98
2005-07-04 12:06 51°13.609 2°56 3.3 155 15.1 100370 98
2005-07-04 12:07 51°13.6 2°56.083 0.6 146 15 100370 98
2005-07-04 12:08 51°13.599 2°56.105 6 171 15.1 100360 98
2005-07-04 12:09 51°13.598 2°56.109 6.1 159 15.2 100370 98